Location: Mizzole
(45.4833°N, 11.0500°E)
Time: 01:22:39
(UTC+00:00)

ATLAS 3B R/B - Pass Details

Date: 21 October 2019
Orbit: 1028 x 1167 km, 63.8° (Epoch: 07 November)

Event Time Altitude Azimuth Distance (km) Brightness Sun altitude
Rises 18:24:03 0° 202° (SSW) 3,832 5.8 -22.3°
Reaches altitude 10° 18:26:44 10° 198° (SSW) 2,864 5.1 -22.7°
Maximum altitude 18:33:19 60° 121° (ESE) 1,178 2.6 -23.9°
Enters shadow 18:35:05 46° 69° (ENE) 1,368 2.8 -24.2°
